EW7448 Weather Reports


Display with metric or nautical units.
time (UTC)temp
F
wind
direction
speed
MPH
gust
MPH
rain 1hr
in
rain 24hr
in
rain mn
in
humidity
%
barometer
mb
20260508130006 79 317 0.0 1.0 0.00 0.00 0.00 86 1013.6
20260508124503 77 290 0.0 2.0 0.00 0.00 0.00 87 1013.6
20260508123100 76 288 0.0 3.0 0.00 0.00 0.00 88 1013.6
20260508121558 74 355 0.0 2.0 0.00 0.00 0.00 91 1013.5
20260508120055 72 344 0.0 1.0 0.00 0.00 0.00 92 1013.4
20260508114605 71 127 0.0 0.0 0.00 0.00 0.00 93 1013.2
20260508113057 70 127 0.0 0.0 0.00 0.00 0.00 94 1012.9
20260508111601 68 128 0.0 0.0 0.00 0.00 0.00 94 1012.9
20260508110047 67 128 0.0 0.0 0.00 0.00 0.00 95 1012.7
20260508104545 66 128 0.0 0.0 0.00 0.00 0.00 94 1012.5
20260508103045 66 128 0.0 0.0 0.00 0.00 0.00 93 1012.3
20260508101543 66 128 0.0 0.0 0.00 0.00 0.00 93 1011.9
20260508100042 66 128 0.0 0.0 0.00 0.00 0.00 93 1011.8
20260508094545 66 128 0.0 1.0 0.00 0.00 0.00 92 1011.8
20260508093041 67 128 0.0 1.0 0.00 0.00 0.00 93 1011.8
20260508091550 66 128 0.0 0.0 0.00 0.00 0.00 92 1011.6
20260508090041 67 128 0.0 1.0 0.00 0.00 0.00 91 1011.5
20260508084537 67 163 0.0 0.0 0.00 0.00 0.00 90 1011.4
20260508083037 67 159 0.0 0.0 0.00 0.00 0.00 90 1011.5
20260508081544 68 159 0.0 0.0 0.00 0.00 0.00 90 1011.5
20260508080032 68 159 0.0 0.0 0.00 0.00 0.00 89 1011.5
20260508074531 68 159 0.0 0.0 0.00 0.00 0.00 89 1011.7
20260508073030 68 159 0.0 0.0 0.00 0.00 0.00 89 1011.8
20260508071529 68 159 0.0 0.0 0.00 0.00 0.00 88 1011.7
20260508070029 69 159 0.0 0.0 0.00 0.00 0.00 87 1011.7
20260508064528 69 159 0.0 0.0 0.00 0.00 0.00 87 1011.8
20260508063021 70 159 0.0 0.0 0.00 0.00 0.00 85 1012.0
20260508061519 70 159 0.0 0.0 0.00 0.00 0.00 85 1012.1
20260508060017 71 159 0.0 1.0 0.00 0.00 0.00 84 1012.2
20260508054517 71 235 0.0 0.0 0.00 0.00 0.00 84 1012.3
20260508053016 71 235 0.0 1.0 0.00 0.00 0.00 85 1012.4
20260508051526 71 235 0.0 1.0 0.00 0.00 0.00 84 1012.4
20260508050011 72 235 0.0 0.0 0.00 0.00 0.00 86 1012.2
20260508044510 72 235 0.0 1.0 0.00 0.00 0.00 86 1012.2
20260508043008 73 226 0.0 0.0 0.00 0.00 0.00 88 1012.2
20260508041504 74 226 0.0 1.0 0.00 0.00 0.00 89 1012.0
20260508040101 74 226 0.0 1.0 0.00 0.00 0.00 88 1012.0
20260508034602 75 238 0.0 1.0 0.00 0.00 0.00 89 1012.1
20260508033103 75 231 0.0 2.0 0.00 0.00 0.00 89 1012.1
20260508031603 76 188 0.0 3.0 0.00 0.00 0.00 90 1012.1
20260508030059 76 195 0.0 2.0 0.00 0.00 0.00 90 1012.0
20260508024605 76 192 0.0 3.0 0.00 0.00 0.00 91 1012.0
20260508023058 76 157 0.0 1.0 0.00 0.00 0.00 91 1011.8
20260508021609 76 143 0.0 1.0 0.00 0.00 0.00 91 1011.7
20260508020059 76 159 0.0 0.0 0.00 0.00 0.00 90 1011.7
20260508014559 77 160 0.0 0.0 0.00 0.00 0.00 89 1011.4
20260508013055 77 149 0.0 1.0 0.00 0.00 0.00 89 1011.4
20260508011607 78 141 0.0 1.0 0.00 0.00 0.00 88 1011.4
20260508010055 78 174 0.0 1.0 0.00 0.00 0.00 87 1011.2
20260508004558 79 152 0.0 2.0 0.00 0.00 0.00 87 1011.2
20260508003052 79 166 0.0 2.0 0.00 0.00 0.00 86 1011.1
20260508001553 80 169 0.0 1.0 0.00 0.00 0.00 86 1011.1
20260508000051 81 133 0.0 4.0 0.00 0.00 0.00 85 1011.0
20260507234555 82 115 0.0 2.0 0.00 0.00 0.00 83 1011.0
20260507233049 82 131 0.0 3.0 0.00 0.00 0.00 82 1010.8
20260507231551 83 148 1.0 5.0 0.00 0.00 0.00 80 1010.9
20260507230048 84 161 0.0 5.0 0.00 0.00 0.00 79 1010.8
20260507224549 85 53 1.0 5.0 0.00 0.00 0.00 78 1010.8
20260507223051 85 161 0.0 5.0 0.00 0.00 0.00 77 1010.7
20260507221547 86 295 0.0 7.0 0.00 0.00 0.00 75 1010.6
20260507220046 88 134 1.0 4.0 0.00 0.00 0.00 72 1010.6
20260507214546 89 63 0.0 7.0 0.00 0.00 0.00 71 1010.7
20260507213048 90 161 1.0 5.0 0.00 0.00 0.00 68 1010.7
20260507211544 90 194 0.0 6.0 0.00 0.00 0.00 69 1010.8
20260507210044 91 58 1.0 5.0 0.00 0.00 0.00 67 1010.8
20260507204543 91 155 0.0 9.0 0.00 0.00 0.00 68 1011.0
20260507203043 91 261 2.0 9.0 0.00 0.00 0.00 66 1011.1
20260507201538 90 29 0.0 6.0 0.00 0.00 0.00 66 1011.2
20260507200036 91 25 0.0 6.0 0.00 0.00 0.00 65 1011.3
20260507194534 93 238 0.0 3.0 0.00 0.00 0.00 53 1011.5
20260507193032 94 205 1.0 5.0 0.00 0.00 0.00 53 1011.5
20260507191530 94 297 2.0 7.0 0.00 0.00 0.00 53 1011.9
20260507190027 92 124 1.0 6.0 0.00 0.00 0.00 54 1012.3
20260507184526 94 236 0.0 8.0 0.00 0.00 0.00 52 1012.4
20260507183022 93 247 2.0 6.0 0.00 0.00 0.00 59 1012.7
20260507181520 92 312 1.0 6.0 0.00 0.00 0.00 60 1012.9
20260507180019 91 259 0.0 11.0 0.00 0.00 0.00 62 1013.0
20260507174519 91 255 0.0 5.0 0.00 0.00 0.00 61 1013.1
20260507173027 90 301 0.0 5.0 0.00 0.00 0.00 64 1013.1
20260507171516 91 274 1.0 5.0 0.00 0.00 0.00 60 1013.2
20260507170016 90 284 1.0 5.0 0.00 0.00 0.00 63 1013.3
20260507164513 90 58 2.0 6.0 0.00 0.00 0.00 66 1013.4
20260507163009 89 231 0.0 5.0 0.00 0.00 0.00 68 1013.8
20260507161517 89 100 0.0 7.0 0.00 0.00 0.00 67 1013.9
20260507160005 88 215 2.0 6.0 0.00 0.00 0.00 69 1014.0
20260507154502 87 319 1.0 4.0 0.00 0.00 0.00 71 1014.2
20260507153059 86 221 0.0 6.0 0.00 0.00 0.00 72 1014.2
20260507151556 86 259 1.0 5.0 0.00 0.00 0.00 73 1014.4
20260507150056 86 162 1.0 5.0 0.00 0.00 0.00 73 1014.4
20260507144615 85 165 2.0 6.0 0.00 0.00 0.00 73 1014.5
20260507143052 84 188 1.0 5.0 0.00 0.00 0.00 74 1014.4
20260507141609 83 204 3.0 7.0 0.00 0.00 0.00 74 1014.5
20260507140048 83 259 1.0 4.0 0.00 0.00 0.00 76 1014.6
20260507134547 82 169 1.0 5.0 0.00 0.00 0.00 77 1014.6
20260507133039 81 207 0.0 4.0 0.00 0.00 0.00 79 1014.7
20260507131536 79 173 0.0 3.0 0.00 0.00 0.00 83 1014.6